Terug naar catalogus

STARLINK-31928

ActiefCommunicatieVLEO
NORAD 59897·PAYLOAD·🇺🇸 United States

Gelanceerd May 28, 2024 vanaf Cape Canaveral Space Force Station

Loading…

Volgende Passages (komende 24 uur)

TLE

VersSource: CelesTrak SupGP

Epoch: Sep 14, 2026, 13:52 UTC

1 59897C 24100N   26257.57826389  .00042930  00000+0  15552-2 0  2579
2 59897  43.0020 138.9464 0001461 259.5309  26.9229 15.27550213    11

Volg STARLINK-31928 in realtime met AllMySat

Download on the App Store